IRIDIUM 62 [-]

Last updated on Nov. 8, 2018, 12:08 a.m. UTC

1 25285U 98021A   18311.14065856  .32236295 -12933-5  30308-3 0  9994
2 25285  86.3739   9.9571 0058337 282.1166  77.5506 16.44616921 78109

Satellite is not in orbit.